TimeCDT,TemperatureF,Dew PointF,Humidity,Sea Level PressureIn,VisibilityMPH,Wind Direction,Wind SpeedMPH,Gust SpeedMPH,PrecipitationIn,Events,Conditions,WindDirDegrees,DateUTC
12:15 AM,38.7,26.6,62,30.15,10.0,North,6.9,-,N/A,,Clear,350,2012-10-10 05:15:00
12:35 AM,39.2,27.0,62,30.15,10.0,Calm,Calm,-,N/A,,Clear,0,2012-10-10 05:35:00
12:55 AM,38.7,26.6,62,30.16,10.0,Calm,Calm,-,N/A,,Clear,0,2012-10-10 05:55:00
1:15 AM,37.8,26.4,64,30.16,10.0,Calm,Calm,-,N/A,,Clear,0,2012-10-10 06:15:00
1:35 AM,36.3,26.8,68,30.17,10.0,Calm,Calm,-,N/A,,Clear,0,2012-10-10 06:35:00
1:55 AM,34.2,26.2,73,30.17,10.0,WSW,8.1,-,N/A,,Clear,250,2012-10-10 06:55:00
2:15 AM,32.9,25.5,74,30.17,10.0,WSW,6.9,-,N/A,,Clear,240,2012-10-10 07:15:00
2:35 AM,32.4,25.3,75,30.18,10.0,WSW,8.1,-,N/A,,Clear,250,2012-10-10 07:35:00
2:55 AM,33.8,25.3,71,30.18,10.0,West,10.4,-,N/A,,Clear,260,2012-10-10 07:55:00
3:15 AM,33.6,25.5,72,30.18,10.0,West,9.2,-,N/A,,Clear,270,2012-10-10 08:15:00
3:35 AM,34.7,25.7,70,30.18,10.0,West,9.2,-,N/A,,Clear,280,2012-10-10 08:35:00
3:55 AM,35.2,26.1,69,30.18,10.0,West,8.1,-,N/A,,Clear,280,2012-10-10 08:55:00
4:15 AM,36.5,26.2,66,30.19,10.0,West,9.2,-,N/A,,Clear,280,2012-10-10 09:15:00
4:35 AM,36.0,26.2,68,30.19,10.0,West,8.1,-,N/A,,Clear,280,2012-10-10 09:35:00
4:55 AM,36.5,26.6,67,30.19,10.0,West,9.2,-,N/A,,Clear,280,2012-10-10 09:55:00
5:15 AM,36.5,26.6,67,30.19,10.0,West,9.2,-,N/A,,Clear,280,2012-10-10 10:15:00
5:35 AM,35.2,26.6,71,30.20,10.0,West,9.2,-,N/A,,Clear,280,2012-10-10 10:35:00
5:55 AM,34.7,26.6,72,30.20,10.0,West,8.1,-,N/A,,Clear,260,2012-10-10 10:55:00
6:15 AM,32.9,26.1,76,30.20,10.0,West,10.4,-,N/A,,Clear,260,2012-10-10 11:15:00
6:35 AM,32.2,25.7,77,30.21,10.0,West,11.5,-,N/A,,Clear,260,2012-10-10 11:35:00
6:55 AM,32.7,25.5,75,30.21,10.0,West,10.4,-,N/A,,Clear,260,2012-10-10 11:55:00
7:15 AM,32.0,25.2,76,30.22,10.0,West,10.4,-,N/A,,Clear,260,2012-10-10 12:15:00
7:55 AM,33.3,25.9,74,30.23,10.0,WSW,10.4,-,N/A,,Clear,240,2012-10-10 12:55:00
8:35 AM,36.1,26.6,68,30.24,10.0,Calm,Calm,-,N/A,,Clear,0,2012-10-10 13:35:00
8:55 AM,38.5,27.1,64,30.25,10.0,Calm,Calm,-,N/A,,Clear,0,2012-10-10 13:55:00
9:15 AM,40.1,27.5,61,30.25,10.0,Calm,Calm,-,N/A,,Clear,0,2012-10-10 14:15:00
9:35 AM,42.8,27.1,54,30.25,10.0,Calm,Calm,-,N/A,,Clear,0,2012-10-10 14:35:00
9:55 AM,45.7,27.9,50,30.26,10.0,Calm,Calm,-,N/A,,Clear,0,2012-10-10 14:55:00
10:15 AM,47.5,27.1,45,30.26,10.0,WNW,6.9,-,N/A,,Clear,290,2012-10-10 15:15:00
10:35 AM,49.1,28.0,44,30.25,10.0,WNW,6.9,-,N/A,,Clear,300,2012-10-10 15:35:00
10:55 AM,50.9,27.5,40,30.26,10.0,WNW,6.9,-,N/A,,Clear,290,2012-10-10 15:55:00
11:15 AM,52.9,28.4,39,30.26,10.0,West,10.4,-,N/A,,Clear,280,2012-10-10 16:15:00
11:55 AM,55.2,28.9,37,30.25,10.0,WNW,5.8,-,N/A,,Clear,290,2012-10-10 16:55:00
12:15 PM,56.1,29.1,36,30.24,10.0,WSW,9.2,-,N/A,,Clear,250,2012-10-10 17:15:00
12:35 PM,56.7,28.4,34,30.23,10.0,West,4.6,-,N/A,,Clear,280,2012-10-10 17:35:00
12:55 PM,57.6,28.2,33,30.23,10.0,WSW,4.6,-,N/A,,Clear,240,2012-10-10 17:55:00
1:15 PM,58.5,28.4,32,30.21,10.0,West,3.5,-,N/A,,Clear,260,2012-10-10 18:15:00
1:35 PM,60.8,29.5,31,30.20,10.0,SW,9.2,17.3,N/A,,Clear,220,2012-10-10 18:35:00
1:55 PM,61.0,29.1,30,30.19,10.0,West,9.2,17.3,N/A,,Clear,260,2012-10-10 18:55:00
2:15 PM,61.9,29.3,29,30.17,10.0,WNW,8.1,17.3,N/A,,Clear,290,2012-10-10 19:15:00
2:35 PM,62.6,29.3,28,30.16,10.0,SW,13.8,-,N/A,,Clear,230,2012-10-10 19:35:00
2:55 PM,63.1,29.8,29,30.15,10.0,WSW,12.7,-,N/A,,Clear,250,2012-10-10 19:55:00
3:15 PM,63.5,29.7,28,30.14,10.0,WSW,9.2,-,N/A,,Clear,240,2012-10-10 20:15:00
3:35 PM,63.9,29.7,28,30.14,10.0,WSW,6.9,-,N/A,,Clear,240,2012-10-10 20:35:00
3:55 PM,64.0,29.7,27,30.13,10.0,WSW,10.4,-,N/A,,Clear,240,2012-10-10 20:55:00
4:15 PM,64.2,29.5,27,30.11,10.0,WSW,10.4,16.1,N/A,,Clear,240,2012-10-10 21:15:00
4:35 PM,64.2,29.8,27,30.11,10.0,SW,8.1,-,N/A,,Clear,220,2012-10-10 21:35:00
4:55 PM,64.2,30.0,28,30.10,10.0,SW,11.5,-,N/A,,Clear,230,2012-10-10 21:55:00
5:15 PM,63.9,29.8,28,30.09,10.0,SSW,11.5,16.1,N/A,,Clear,210,2012-10-10 22:15:00
5:35 PM,63.5,30.0,28,30.09,10.0,SSW,9.2,-,N/A,,Clear,200,2012-10-10 22:35:00
5:55 PM,62.8,30.4,30,30.08,10.0,SSW,10.4,-,N/A,,Clear,200,2012-10-10 22:55:00
6:15 PM,61.2,30.2,31,30.08,10.0,South,9.2,-,N/A,,Clear,190,2012-10-10 23:15:00
6:35 PM,59.0,29.8,33,30.08,10.0,SSW,8.1,-,N/A,,Clear,200,2012-10-10 23:35:00
6:55 PM,56.1,29.3,36,30.07,10.0,South,8.1,-,N/A,,Clear,190,2012-10-10 23:55:00
7:15 PM,53.1,28.4,39,30.08,10.0,SSW,6.9,-,N/A,,Clear,200,2012-10-11 00:15:00
7:35 PM,52.2,29.3,41,30.08,10.0,South,8.1,-,N/A,,Clear,190,2012-10-11 00:35:00
7:55 PM,50.2,29.5,45,30.08,10.0,South,9.2,-,N/A,,Clear,190,2012-10-11 00:55:00
8:15 PM,49.3,29.1,46,30.08,10.0,South,8.1,-,N/A,,Clear,190,2012-10-11 01:15:00
8:35 PM,50.4,29.8,45,30.08,10.0,SSW,9.2,-,N/A,,Clear,200,2012-10-11 01:35:00
8:55 PM,50.4,29.8,45,30.08,10.0,SSW,9.2,-,N/A,,Clear,200,2012-10-11 01:55:00
9:15 PM,49.3,30.0,48,30.08,10.0,SSW,9.2,-,N/A,,Clear,200,2012-10-11 02:15:00
9:35 PM,48.6,30.2,49,30.09,10.0,SSW,8.1,-,N/A,,Clear,200,2012-10-11 02:35:00
9:55 PM,47.7,30.2,51,30.09,10.0,SSW,8.1,-,N/A,,Clear,200,2012-10-11 02:55:00
10:15 PM,48.6,30.2,49,30.09,10.0,South,9.2,-,N/A,,Clear,190,2012-10-11 03:15:00
10:35 PM,45.5,30.2,55,30.08,10.0,South,6.9,-,N/A,,Clear,190,2012-10-11 03:35:00
10:55 PM,45.7,30.6,56,30.08,10.0,South,10.4,-,N/A,,Clear,190,2012-10-11 03:55:00
11:15 PM,46.9,30.2,52,30.08,10.0,SSW,9.2,-,N/A,,Clear,200,2012-10-11 04:15:00
11:35 PM,47.8,30.2,50,30.08,10.0,SSW,11.5,-,N/A,,Clear,200,2012-10-11 04:35:00
11:55 PM,47.3,30.2,52,30.09,10.0,SSW,11.5,-,N/A,,Clear,200,2012-10-11 04:55:00